TimeCDT,TemperatureF,Dew PointF,Humidity,Sea Level PressureIn,VisibilityMPH,Wind Direction,Wind SpeedMPH,Gust SpeedMPH,PrecipitationIn,Events,Conditions,WindDirDegrees,DateUTC
12:13 AM,69.8,64.4,83,30.20,8.0,ESE,8.1,-,N/A,,Mostly Cloudy,110,2013-10-26 05:13:00
12:53 AM,69.1,64.0,84,30.18,8.0,ESE,8.1,-,N/A,,Overcast,120,2013-10-26 05:53:00
1:53 AM,68.0,64.0,87,30.17,7.0,ESE,6.9,-,N/A,,Overcast,110,2013-10-26 06:53:00
2:17 AM,68.0,64.4,88,30.19,7.0,ESE,5.8,-,N/A,,Overcast,120,2013-10-26 07:17:00
2:53 AM,66.9,64.0,90,30.14,5.0,East,5.8,-,N/A,,Overcast,90,2013-10-26 07:53:00
3:53 AM,66.0,63.0,90,30.13,5.0,East,4.6,-,N/A,,Overcast,90,2013-10-26 08:53:00
4:24 AM,66.2,62.6,88,30.16,4.0,ENE,3.5,-,N/A,,Overcast,60,2013-10-26 09:24:00
4:53 AM,66.0,63.0,90,30.13,4.0,East,3.5,-,N/A,,Overcast,90,2013-10-26 09:53:00
5:53 AM,66.0,63.0,90,30.13,4.0,East,3.5,-,N/A,,Overcast,80,2013-10-26 10:53:00
6:53 AM,64.9,62.1,90,30.14,4.0,NNE,3.5,-,N/A,,Overcast,30,2013-10-26 11:53:00
7:26 AM,64.4,62.6,94,30.17,4.0,ENE,3.5,-,N/A,,Mostly Cloudy,60,2013-10-26 12:26:00
7:43 AM,64.4,62.6,94,30.17,2.0,ENE,3.5,-,N/A,,Mostly Cloudy,70,2013-10-26 12:43:00
7:53 AM,64.9,62.1,90,30.15,2.5,ENE,3.5,-,N/A,,Overcast,70,2013-10-26 12:53:00
8:02 AM,64.4,62.6,94,30.17,2.0,ENE,4.6,-,N/A,,Overcast,70,2013-10-26 13:02:00
8:19 AM,64.4,62.6,94,30.17,1.8,East,4.6,-,N/A,,Overcast,80,2013-10-26 13:19:00
8:53 AM,66.0,64.0,93,30.17,1.5,East,4.6,-,N/A,,Overcast,90,2013-10-26 13:53:00
9:16 AM,66.2,64.4,94,30.19,2.0,ENE,4.6,-,N/A,,Overcast,70,2013-10-26 14:16:00
9:35 AM,68.0,64.4,88,30.20,3.0,East,3.5,-,N/A,,Overcast,80,2013-10-26 14:35:00
9:48 AM,69.8,64.4,83,30.21,4.0,East,4.6,-,N/A,,Haze,100,2013-10-26 14:48:00
9:53 AM,69.1,64.0,84,30.19,4.0,ESE,3.5,-,N/A,,Haze,120,2013-10-26 14:53:00
10:35 AM,71.6,64.4,78,30.21,8.0,ESE,6.9,-,N/A,,Mostly Cloudy,120,2013-10-26 15:35:00
10:53 AM,73.0,64.9,76,30.18,9.0,ESE,5.8,-,N/A,,Overcast,120,2013-10-26 15:53:00
11:53 AM,78.1,64.9,64,30.17,10.0,SE,11.5,-,N/A,,Scattered Clouds,140,2013-10-26 16:53:00
12:53 PM,80.1,64.0,58,30.14,10.0,SE,9.2,-,N/A,,Mostly Cloudy,140,2013-10-26 17:53:00
1:53 PM,80.1,63.0,56,30.11,10.0,SE,9.2,-,N/A,,Overcast,130,2013-10-26 18:53:00
2:53 PM,82.9,62.1,49,30.07,10.0,SSE,12.7,-,N/A,,Mostly Cloudy,160,2013-10-26 19:53:00
3:53 PM,84.0,62.1,47,30.05,10.0,SE,12.7,-,N/A,,Scattered Clouds,140,2013-10-26 20:53:00
3:56 PM,84.2,62.6,48,30.07,10.0,SE,10.4,-,N/A,,Scattered Clouds,140,2013-10-26 20:56:00
4:53 PM,82.0,61.0,49,30.04,10.0,SE,10.4,-,N/A,,Mostly Cloudy,140,2013-10-26 21:53:00
5:53 PM,81.0,62.1,52,30.04,10.0,SSE,9.2,-,N/A,,Mostly Cloudy,150,2013-10-26 22:53:00
6:53 PM,79.0,63.0,58,30.04,10.0,SSE,8.1,-,N/A,,Overcast,150,2013-10-26 23:53:00
7:53 PM,75.9,62.1,62,30.05,10.0,SE,9.2,-,N/A,,Clear,140,2013-10-27 00:53:00
8:53 PM,73.9,62.1,66,30.06,10.0,SSE,5.8,-,N/A,,Clear,150,2013-10-27 01:53:00
9:53 PM,72.0,63.0,73,30.06,10.0,SE,5.8,-,N/A,,Clear,140,2013-10-27 02:53:00
10:53 PM,70.0,63.0,78,30.06,10.0,ESE,3.5,-,N/A,,Clear,120,2013-10-27 03:53:00
11:53 PM,68.0,62.1,81,30.06,10.0,Calm,Calm,-,N/A,,Clear,0,2013-10-27 04:53:00